QPF
0.11 0.08 0.07 0.07 0.06 0.05 0.05 0.05 0.05 0.05 0.05 0.07 0.09 0.12 0.05 0.04 0.05 0.04 0.03 0.05 0.08 0.10 0.12 0.15 0.12 0.09 0.07 0.06 0.07 0.06 0.04 0.03 0.03 0.03 0.04 0.04 0.04 0.04 0.04 0.06 0.07 0.06 0.03
0.09 0.08 0.06 0.06 0.05 0.04 0.05 0.05 0.05 0.05 0.05 0.05 0.06 0.15 0.10 0.07 0.06 0.06 0.06 0.06 0.10 0.14 0.19 0.18 0.12 0.09 0.08 0.07 0.07 0.07 0.06 0.04 0.03 0.02 0.03 0.05 0.04 0.03 0.04 0.06 0.09 0.06 0.04
0.06 0.05 0.04 0.06 0.05 0.04 0.04 0.05 0.06 0.05 0.06 0.05 0.05 0.11 0.14 0.14 0.11 0.08 0.08 0.10 0.17 0.17 0.21 0.18 0.10 0.08 0.08 0.07 0.07 0.06 0.06 0.04 0.03 0.04 0.07 0.08 0.06 0.04 0.03 0.04 0.05 0.03 0.04
0.04 0.05 0.04 0.05 0.04 0.05 0.05 0.04 0.04 0.04 0.06 0.06 0.07 0.10 0.11 0.11 0.11 0.09 0.09 0.15 0.18 0.16 0.19 0.15 0.09 0.09 0.07 0.05 0.05 0.05 0.04 0.03 0.04 0.10 0.14 0.12 0.08 0.05 0.05 0.04 0.03 0.02 0.03
0.04 0.03 0.04 0.04 0.04 0.05 0.05 0.04 0.04 0.05 0.05 0.05 0.07 0.08 0.08 0.08 0.10 0.10 0.09 0.14 0.14 0.14 0.15 0.11 0.09 0.07 0.05 0.05 0.04 0.03 0.03 0.04 0.07 0.12 0.12 0.12 0.09 0.05 0.06 0.05 0.03 0.02 0.02
0.03 0.03 0.04 0.04 0.04 0.05 0.04 0.04 0.04 0.04 0.05 0.04 0.06 0.08 0.08 0.08 0.09 0.10 0.11 0.14 0.12 0.11 0.10 0.08 0.07 0.04 0.04 0.04 0.04 0.03 0.04 0.06 0.08 0.09 0.08 0.09 0.07 0.03 0.04 0.05 0.03 0.02 0.03
0.04 0.05 0.04 0.04 0.04 0.05 0.04 0.04 0.04 0.04 0.04 0.03 0.03 0.04 0.05 0.08 0.09 0.10 0.12 0.13 0.11 0.09 0.09 0.08 0.06 0.04 0.04 0.04 0.04 0.03 0.03 0.04 0.07 0.06 0.07 0.08 0.06 0.03 0.03 0.04 0.03 0.01 0.02
0.04 0.05 0.04 0.04 0.03 0.04 0.04 0.03 0.04 0.04 0.04 0.03 0.04 0.03 0.03 0.04 0.06 0.09 0.13 0.14 0.10 0.08 0.08 0.08 0.07 0.06 0.05 0.04 0.03 0.03 0.03 0.04 0.05 0.06 0.04 0.05 0.03 0.02 0.03 0.04 0.02 0.02 0.02
0.06 0.06 0.05 0.05 0.04 0.04 0.07 0.04 0.03 0.04 0.03 0.03 0.03 0.03 0.02 0.03 0.04 0.07 0.12 0.16 0.12 0.08 0.08 0.08 0.07 0.06 0.04 0.04 0.02 0.02 0.02 0.03 0.05 0.09 0.05 0.05 0.03 0.03 0.03 0.03 0.02 0.02 0.02
0.07 0.06 0.05 0.05 0.06 0.05 0.05 0.03 0.03 0.04 0.04 0.03 0.03 0.03 0.03 0.03 0.04 0.08 0.12 0.14 0.13 0.10 0.08 0.07 0.05 0.04 0.03 0.03 0.03 0.03 0.02 0.03 0.04 0.07 0.05 0.03 0.02 0.02 0.02 0.02 0.02 0.03 0.02
0.06 0.06 0.06 0.05 0.06 0.06 0.04 0.04 0.06 0.05 0.05 0.04 0.04 0.04 0.07 0.08 0.10 0.13 0.13 0.11 0.11 0.09 0.07 0.05 0.03 0.03 0.02 0.02 0.02 0.02 0.02 0.02 0.02 0.03 0.03 0.03 0.03 0.02 0.02 0.02 0.02 0.03 0.02
0.05 0.04 0.05 0.05 0.07 0.07 0.08 0.09 0.09 0.08 0.07 0.07 0.06 0.07 0.08 0.10 0.12 0.11 0.10 0.07 0.08 0.08 0.06 0.03 0.02 0.02 0.03 0.06 0.03 0.02 0.02 0.02 0.02 0.03 0.02 0.03 0.03 0.02 0.02 0.02 0.03 0.03 0.02
0.04 0.05 0.04 0.03 0.03 0.04 0.05 0.04 0.05 0.07 0.07 0.06 0.05 0.06 0.07 0.07 0.07 0.09 0.11 0.08 0.09 0.08 0.07 0.04 0.03 0.04 0.04 0.06 0.03 0.01 0.01 0.01 0.02 0.03 0.02 0.02 0.05 0.04 0.03 0.03 0.03 0.03 0.03
0.04 0.03 0.03 0.02 0.02 0.03 0.03 0.02 0.02 0.03 0.03 0.04 0.05 0.04 0.07 0.09 0.08 0.09 0.12 0.11 0.10 0.10 0.09 0.07 0.06 0.03 0.03 0.02 0.01 0.02 0.02 0.02 0.02 0.03 0.03 0.03 0.03 0.03 0.04 0.04 0.03 0.03 0.04
0.03 0.02 0.02 0.01 0.01 0.01 0.03 0.03 0.01 0.02 0.03 0.03 0.04 0.04 0.07 0.08 0.08 0.09 0.10 0.11 0.10 0.14 0.11 0.08 0.05 0.03 0.03 0.01 0.01 0.01 0.02 0.03 0.03 0.03 0.03 0.02 0.01 0.02 0.03 0.03 0.03 0.04 0.04
0.03 0.03 0.01 0.01 0.00 0.01 0.02 0.03 0.02 0.01 0.03 0.03 0.04 0.05 0.05 0.06 0.08 0.09 0.09 0.09 0.09 0.10 0.09 0.07 0.05 0.05 0.04 0.03 0.02 0.02 0.02 0.03 0.03 0.04 0.04 0.03 0.01 0.01 0.01 0.02 0.03 0.05 0.06
0.02 0.02 0.01 0.01 0.00 0.01 0.02 0.03 0.02 0.02 0.01 0.04 0.05 0.05 0.05 0.05 0.09 0.11 0.11 0.09 0.07 0.06 0.08 0.07 0.06 0.06 0.05 0.05 0.04 0.05 0.07 0.05 0.03 0.05 0.06 0.07 0.04 0.02 0.01 0.01 0.02 0.04 0.05
0.01 0.02 0.02 0.01 0.01 0.01 0.02 0.04 0.03 0.02 0.03 0.04 0.04 0.06 0.06 0.06 0.09 0.12 0.10 0.09 0.08 0.06 0.08 0.08 0.08 0.06 0.07 0.06 0.07 0.07 0.09 0.08 0.04 0.04 0.04 0.06 0.05 0.03 0.02 0.01 0.02 0.02 0.05
0.01 0.01 0.01 0.02 0.03 0.04 0.03 0.04 0.04 0.05 0.06 0.04 0.05 0.06 0.06 0.07 0.07 0.09 0.09 0.08 0.06 0.07 0.07 0.07 0.10 0.08 0.09 0.08 0.05 0.06 0.04 0.05 0.05 0.04 0.03 0.05 0.05 0.04 0.03 0.03 0.03 0.03 0.03
0.01 0.01 0.01 0.02 0.04 0.04 0.05 0.05 0.06 0.06 0.06 0.04 0.04 0.05 0.04 0.04 0.04 0.07 0.08 0.07 0.07 0.10 0.11 0.09 0.10 0.09 0.09 0.08 0.04 0.04 0.04 0.04 0.06 0.05 0.04 0.04 0.05 0.03 0.03 0.05 0.04 0.02 0.03
0.02 0.02 0.03 0.03 0.03 0.04 0.06 0.07 0.07 0.07 0.06 0.03 0.03 0.03 0.03 0.03 0.04 0.07 0.06 0.10 0.09 0.11 0.09 0.08 0.11 0.10 0.09 0.07 0.10 0.09 0.06 0.05 0.06 0.07 0.06 0.06 0.05 0.05 0.03 0.05 0.06 0.06 0.05
0.01 0.01 0.02 0.03 0.04 0.03 0.05 0.07 0.08 0.05 0.04 0.04 0.03 0.04 0.03 0.02 0.02 0.04 0.07 0.07 0.08 0.09 0.08 0.08 0.10 0.09 0.09 0.09 0.12 0.15 0.15 0.15 0.11 0.07 0.09 0.09 0.06 0.06 0.05 0.05 0.07 0.10 0.09
0.01 0.01 0.02 0.03 0.04 0.03 0.05 0.05 0.06 0.05 0.05 0.08 0.09 0.09 0.06 0.04 0.03 0.03 0.04 0.05 0.08 0.08 0.08 0.09 0.09 0.11 0.13 0.12 0.12 0.15 0.21 0.22 0.18 0.12 0.10 0.10 0.08 0.08 0.07 0.06 0.08 0.10 0.10
0.01 0.01 0.01 0.03 0.05 0.05 0.05 0.06 0.07 0.08 0.08 0.11 0.12 0.11 0.07 0.06 0.04 0.04 0.06 0.08 0.08 0.08 0.09 0.08 0.11 0.13 0.13 0.13 0.13 0.12 0.16 0.19 0.18 0.21 0.17 0.10 0.08 0.10 0.08 0.06 0.07 0.10 0.13
0.01 0.01 0.01 0.02 0.04 0.04 0.05 0.05 0.05 0.08 0.09 0.09 0.10 0.11 0.10 0.09 0.08 0.06 0.08 0.11 0.11 0.09 0.10 0.10 0.10 0.10 0.11 0.12 0.14 0.13 0.16 0.16 0.14 0.18 0.18 0.15 0.12 0.09 0.09 0.08 0.08 0.09 0.10
0.00 0.01 0.01 0.01 0.02 0.02 0.02 0.04 0.06 0.07 0.09 0.11 0.10 0.10 0.10 0.10 0.10 0.10 0.14 0.19 0.14 0.12 0.11 0.12 0.09 0.09 0.09 0.11 0.12 0.11 0.12 0.14 0.15 0.17 0.17 0.15 0.14 0.11 0.10 0.08 0.07 0.07 0.09
MSLP
1012.42 1012.05 1011.70 1011.44 1011.33 1011.34 1011.46 1011.64 1011.81 1011.97 1012.09 1012.21 1012.37 1012.59 1012.91 1013.31 1013.75 1014.19 1014.58 1014.88 1015.08 1015.19 1015.27 1015.33 1015.44 1015.60 1015.81 1016.04 1016.26 1016.44 1016.56 1016.61 1016.64 1016.65 1016.70 1016.80 1016.97 1017.18 1017.42 1017.67 1017.89 1018.09 1018.26
1012.79 1012.52 1012.26 1012.08 1012.00 1012.03 1012.13 1012.26 1012.38 1012.47 1012.55 1012.65 1012.80 1013.05 1013.39 1013.81 1014.26 1014.69 1015.04 1015.29 1015.44 1015.50 1015.53 1015.58 1015.67 1015.83 1016.04 1016.28 1016.49 1016.65 1016.74 1016.78 1016.79 1016.80 1016.86 1016.98 1017.18 1017.42 1017.69 1017.96 1018.19 1018.39 1018.55
1013.00 1012.83 1012.67 1012.58 1012.58 1012.66 1012.78 1012.90 1012.99 1013.04 1013.08 1013.14 1013.28 1013.50 1013.83 1014.23 1014.65 1015.04 1015.34 1015.54 1015.64 1015.67 1015.69 1015.73 1015.83 1016.00 1016.22 1016.45 1016.65 1016.79 1016.87 1016.89 1016.89 1016.90 1016.98 1017.13 1017.35 1017.62 1017.92 1018.20 1018.45 1018.65 1018.80
1013.00 1012.91 1012.86 1012.89 1013.01 1013.18 1013.37 1013.52 1013.61 1013.65 1013.66 1013.68 1013.77 1013.95 1014.23 1014.57 1014.94 1015.27 1015.52 1015.67 1015.74 1015.76 1015.78 1015.84 1015.96 1016.15 1016.37 1016.60 1016.78 1016.90 1016.96 1016.96 1016.95 1016.97 1017.06 1017.23 1017.48 1017.78 1018.10 1018.39 1018.65 1018.85 1019.01
1012.79 1012.77 1012.83 1013.00 1013.26 1013.56 1013.85 1014.07 1014.20 1014.24 1014.23 1014.22 1014.26 1014.38 1014.59 1014.87 1015.16 1015.43 1015.63 1015.75 1015.81 1015.84 1015.88 1015.96 1016.11 1016.32 1016.54 1016.75 1016.91 1017.00 1017.02 1017.00 1016.98 1017.01 1017.11 1017.31 1017.58 1017.89 1018.22 1018.53 1018.78 1018.99 1019.16
1012.44 1012.47 1012.64 1012.94 1013.35 1013.79 1014.20 1014.50 1014.69 1014.76 1014.74 1014.71 1014.71 1014.78 1014.93 1015.14 1015.37 1015.59 1015.75 1015.85 1015.91 1015.95 1016.02 1016.14 1016.31 1016.52 1016.74 1016.92 1017.04 1017.08 1017.06 1017.01 1016.98 1017.01 1017.13 1017.34 1017.63 1017.96 1018.29 1018.60 1018.86 1019.07 1019.26
1012.08 1012.15 1012.40 1012.81 1013.34 1013.90 1014.41 1014.80 1015.04 1015.13 1015.13 1015.10 1015.08 1015.12 1015.23 1015.40 1015.59 1015.77 1015.91 1016.00 1016.07 1016.13 1016.23 1016.37 1016.55 1016.75 1016.94 1017.08 1017.15 1017.14 1017.07 1017.00 1016.95 1016.98 1017.11 1017.33 1017.64 1017.98 1018.32 1018.62 1018.88 1019.10 1019.29
1011.86 1011.94 1012.23 1012.72 1013.32 1013.94 1014.51 1014.94 1015.21 1015.34 1015.36 1015.33 1015.33 1015.38 1015.48 1015.64 1015.82 1015.98 1016.11 1016.20 1016.27 1016.35 1016.45 1016.59 1016.77 1016.94 1017.10 1017.18 1017.19 1017.13 1017.03 1016.92 1016.86 1016.90 1017.04 1017.28 1017.60 1017.95 1018.29 1018.60 1018.85 1019.07 1019.27
1011.87 1011.95 1012.25 1012.75 1013.35 1013.98 1014.53 1014.95 1015.22 1015.35 1015.39 1015.40 1015.43 1015.52 1015.66 1015.83 1016.02 1016.18 1016.30 1016.39 1016.45 1016.52 1016.61 1016.74 1016.89 1017.03 1017.13 1017.17 1017.14 1017.03 1016.89 1016.77 1016.72 1016.76 1016.92 1017.19 1017.52 1017.89 1018.23 1018.54 1018.80 1019.02 1019.22
1012.17 1012.23 1012.50 1012.96 1013.50 1014.05 1014.52 1014.88 1015.10 1015.21 1015.26 1015.31 1015.40 1015.54 1015.73 1015.95 1016.16 1016.33 1016.44 1016.50 1016.54 1016.58 1016.65 1016.74 1016.85 1016.95 1017.02 1017.02 1016.95 1016.82 1016.67 1016.55 1016.51 1016.57 1016.76 1017.05 1017.40 1017.78 1018.15 1018.46 1018.72 1018.94 1019.14
1012.68 1012.73 1012.96 1013.32 1013.75 1014.17 1014.51 1014.75 1014.88 1014.95 1015.01 1015.09 1015.24 1015.45 1015.71 1015.97 1016.20 1016.37 1016.47 1016.50 1016.50 1016.49 1016.51 1016.55 1016.63 1016.70 1016.73 1016.72 1016.64 1016.51 1016.37 1016.27 1016.25 1016.34 1016.55 1016.87 1017.25 1017.64 1018.02 1018.35 1018.63 1018.85 1019.06
1013.28 1013.33 1013.51 1013.78 1014.07 1014.33 1014.51 1014.60 1014.64 1014.65 1014.70 1014.81 1015.01 1015.29 1015.60 1015.90 1016.15 1016.31 1016.37 1016.35 1016.30 1016.23 1016.20 1016.21 1016.25 1016.29 1016.32 1016.31 1016.24 1016.14 1016.03 1015.95 1015.96 1016.08 1016.32 1016.65 1017.04 1017.46 1017.86 1018.21 1018.50 1018.75 1018.97
1013.81 1013.88 1014.03 1014.22 1014.38 1014.49 1014.52 1014.48 1014.42 1014.38 1014.41 1014.54 1014.79 1015.11 1015.46 1015.78 1016.02 1016.15 1016.17 1016.10 1015.99 1015.87 1015.79 1015.76 1015.78 1015.82 1015.85 1015.85 1015.81 1015.74 1015.67 1015.63 1015.66 1015.80 1016.05 1016.39 1016.79 1017.21 1017.63 1018.00 1018.32 1018.60 1018.84
1014.13 1014.25 1014.40 1014.54 1014.62 1014.62 1014.53 1014.40 1014.27 1014.19 1014.22 1014.37 1014.64 1014.98 1015.34 1015.65 1015.87 1015.96 1015.93 1015.81 1015.64 1015.48 1015.37 1015.32 1015.32 1015.37 1015.41 1015.44 1015.42 1015.38 1015.34 1015.32 1015.37 1015.51 1015.75 1016.08 1016.48 1016.90 1017.32 1017.71 1018.07 1018.38 1018.66
1014.16 1014.35 1014.53 1014.67 1014.72 1014.68 1014.55 1014.39 1014.23 1014.15 1014.18 1014.35 1014.62 1014.96 1015.30 1015.58 1015.75 1015.80 1015.72 1015.56 1015.36 1015.18 1015.04 1014.98 1014.98 1015.03 1015.08 1015.11 1015.11 1015.08 1015.05 1015.04 1015.08 1015.21 1015.43 1015.74 1016.11 1016.52 1016.94 1017.34 1017.72 1018.08 1018.40
1013.94 1014.20 1014.44 1014.62 1014.71 1014.69 1014.59 1014.46 1014.34 1014.29 1014.35 1014.53 1014.79 1015.10 1015.40 1015.62 1015.74 1015.74 1015.62 1015.43 1015.22 1015.04 1014.90 1014.83 1014.83 1014.86 1014.90 1014.91 1014.90 1014.86 1014.81 1014.78 1014.81 1014.91 1015.10 1015.38 1015.72 1016.10 1016.51 1016.92 1017.32 1017.70 1018.07
1013.59 1013.91 1014.22 1014.46 1014.62 1014.68 1014.67 1014.63 1014.60 1014.62 1014.72 1014.91 1015.15 1015.42 1015.65 1015.81 1015.86 1015.82 1015.68 1015.48 1015.28 1015.10 1014.97 1014.90 1014.87 1014.87 1014.87 1014.84 1014.78 1014.70 1014.62 1014.56 1014.56 1014.64 1014.80 1015.05 1015.36 1015.71 1016.10 1016.50 1016.91 1017.31 1017.71
1013.31 1013.66 1014.00 1014.31 1014.55 1014.72 1014.84 1014.92 1015.00 1015.11 1015.27 1015.46 1015.68 1015.88 1016.04 1016.12 1016.12 1016.04 1015.89 1015.71 1015.52 1015.37 1015.25 1015.16 1015.10 1015.04 1014.97 1014.86 1014.73 1014.60 1014.47 1014.39 1014.37 1014.44 1014.59 1014.82 1015.11 1015.45 1015.82 1016.20 1016.59 1016.99 1017.40
1013.28 1013.60 1013.95 1014.29 1014.61 1014.88 1015.11 1015.32 1015.53 1015.73 1015.94 1016.14 1016.32 1016.46 1016.54 1016.55 1016.49 1016.38 1016.23 1016.07 1015.92 1015.79 1015.68 1015.58 1015.46 1015.33 1015.16 1014.96 1014.75 1014.55 1014.39 1014.29 1014.29 1014.37 1014.54 1014.79 1015.09 1015.42 1015.77 1016.13 1016.49 1016.87 1017.25
1013.61 1013.87 1014.18 1014.51 1014.85 1015.19 1015.52 1015.84 1016.14 1016.42 1016.67 1016.87 1017.02 1017.09 1017.09 1017.04 1016.93 1016.80 1016.66 1016.53 1016.42 1016.31 1016.20 1016.07 1015.90 1015.68 1015.41 1015.12 1014.83 1014.58 1014.41 1014.33 1014.36 1014.50 1014.74 1015.03 1015.37 1015.71 1016.05 1016.38 1016.70 1017.03 1017.36
1014.36 1014.51 1014.73 1015.00 1015.31 1015.66 1016.04 1016.43 1016.80 1017.13 1017.41 1017.60 1017.70 1017.72 1017.66 1017.54 1017.40 1017.25 1017.13 1017.04 1016.96 1016.87 1016.76 1016.60 1016.37 1016.07 1015.72 1015.35 1015.01 1014.73 1014.57 1014.54 1014.65 1014.89 1015.21 1015.59 1015.99 1016.36 1016.70 1017.00 1017.28 1017.53 1017.79
1015.44 1015.48 1015.58 1015.74 1015.98 1016.29 1016.66 1017.06 1017.46 1017.81 1018.09 1018.27 1018.34 1018.30 1018.19 1018.03 1017.86 1017.72 1017.61 1017.54 1017.49 1017.43 1017.32 1017.13 1016.86 1016.50 1016.09 1015.67 1015.30 1015.04 1014.92 1014.97 1015.19 1015.54 1015.98 1016.46 1016.93 1017.34 1017.69 1017.97 1018.18 1018.36 1018.53
1016.74 1016.67 1016.64 1016.68 1016.80 1017.02 1017.33 1017.69 1018.08 1018.43 1018.70 1018.85 1018.90 1018.83 1018.68 1018.49 1018.31 1018.16 1018.07 1018.03 1018.00 1017.96 1017.85 1017.66 1017.36 1016.97 1016.53 1016.10 1015.74 1015.52 1015.48 1015.62 1015.95 1016.42 1016.98 1017.56 1018.10 1018.55 1018.91 1019.16 1019.33 1019.44 1019.51
1018.06 1017.92 1017.78 1017.69 1017.68 1017.79 1018.00 1018.30 1018.63 1018.95 1019.21 1019.35 1019.38 1019.29 1019.13 1018.93 1018.74 1018.60 1018.52 1018.50 1018.49 1018.46 1018.37 1018.18 1017.89 1017.50 1017.07 1016.66 1016.35 1016.18 1016.21 1016.45 1016.87 1017.44 1018.09 1018.74 1019.34 1019.82 1020.18 1020.42 1020.54 1020.59 1020.59
1019.25 1019.09 1018.88 1018.68 1018.55 1018.54 1018.65 1018.86 1019.13 1019.41 1019.64 1019.78 1019.80 1019.72 1019.56 1019.36 1019.18 1019.05 1018.98 1018.97 1018.98 1018.97 1018.89 1018.72 1018.45 1018.09 1017.70 1017.34 1017.08 1016.97 1017.07 1017.37 1017.85 1018.48 1019.17 1019.86 1020.47 1020.96 1021.32 1021.53 1021.63 1021.63 1021.59
1020.23 1020.09 1019.85 1019.58 1019.36 1019.24 1019.25 1019.37 1019.58 1019.83 1020.04 1020.18 1020.21 1020.14 1020.00 1019.82 1019.65 1019.53 1019.47 1019.46 1019.48 1019.48 1019.43 1019.29 1019.06 1018.75 1018.41 1018.11 1017.90 1017.84 1017.97 1018.29 1018.79 1019.41 1020.09 1020.76 1021.36 1021.83 1022.17 1022.37 1022.45 1022.44 1022.38
Thickness
5798 5797 5794 5793 5793 5792 5791 5790 5789 5787 5786 5785 5783 5782 5780 5779 5777 5776 5774 5773 5771 5769 5768 5766 5765 5763 5762 5761 5760 5759 5758 5757 5756 5754 5753 5751 5750 5748 5747 5745 5745 5743 5741
5802 5797 5793 5793 5792 5791 5790 5788 5787 5786 5785 5783 5781 5780 5778 5776 5775 5774 5773 5771 5770 5768 5767 5765 5763 5762 5761 5760 5759 5758 5757 5756 5755 5753 5752 5750 5748 5747 5746 5745 5743 5740 5738
5804 5798 5794 5792 5791 5790 5788 5787 5786 5785 5783 5782 5780 5778 5776 5775 5773 5772 5771 5770 5768 5767 5765 5763 5762 5761 5760 5759 5758 5757 5756 5755 5754 5753 5752 5750 5747 5745 5744 5743 5741 5738 5737
5805 5799 5794 5791 5790 5788 5787 5786 5784 5783 5782 5780 5778 5776 5775 5773 5772 5771 5769 5768 5767 5765 5763 5762 5761 5759 5758 5757 5757 5756 5756 5755 5753 5753 5752 5750 5747 5744 5743 5741 5739 5737 5735
5806 5798 5793 5790 5788 5787 5786 5784 5783 5782 5780 5778 5777 5775 5773 5772 5771 5769 5768 5767 5765 5764 5762 5761 5759 5758 5757 5756 5756 5756 5755 5754 5754 5753 5751 5749 5746 5743 5742 5739 5737 5736 5734
5806 5798 5792 5790 5788 5786 5784 5783 5782 5780 5779 5777 5776 5774 5773 5771 5770 5769 5768 5766 5764 5763 5761 5760 5758 5757 5756 5755 5755 5755 5755 5754 5753 5753 5751 5748 5745 5743 5741 5739 5737 5735 5733
5806 5799 5792 5789 5787 5785 5783 5782 5780 5779 5777 5776 5774 5773 5772 5770 5769 5768 5766 5765 5763 5762 5760 5759 5757 5756 5755 5755 5755 5755 5755 5754 5754 5753 5751 5747 5745 5743 5741 5738 5736 5734 5733
5806 5799 5792 5789 5787 5785 5782 5781 5779 5778 5776 5775 5773 5772 5771 5769 5768 5767 5765 5764 5762 5761 5759 5758 5757 5756 5755 5754 5754 5755 5755 5754 5755 5753 5750 5746 5744 5742 5740 5738 5736 5734 5732
5808 5801 5795 5790 5787 5784 5782 5780 5778 5777 5775 5774 5772 5771 5771 5769 5767 5766 5764 5763 5761 5760 5759 5757 5756 5755 5755 5754 5754 5755 5755 5755 5753 5752 5749 5745 5743 5742 5740 5738 5736 5734 5732
5807 5803 5798 5794 5790 5786 5782 5780 5778 5776 5774 5773 5772 5771 5771 5769 5767 5765 5764 5762 5761 5759 5758 5757 5756 5755 5755 5754 5755 5755 5755 5754 5753 5752 5748 5745 5743 5741 5740 5737 5736 5734 5732
5802 5801 5800 5797 5793 5790 5786 5782 5779 5776 5774 5773 5772 5770 5770 5769 5768 5765 5764 5762 5760 5759 5758 5757 5756 5756 5755 5754 5755 5755 5755 5755 5755 5752 5748 5745 5742 5741 5739 5737 5736 5734 5732
5796 5798 5799 5797 5795 5793 5790 5784 5782 5779 5775 5774 5774 5772 5771 5771 5769 5767 5764 5762 5761 5759 5758 5757 5757 5756 5755 5756 5756 5756 5756 5756 5755 5752 5748 5745 5743 5741 5739 5737 5736 5734 5731
5798 5798 5798 5797 5795 5794 5791 5788 5785 5782 5778 5777 5775 5774 5773 5771 5770 5767 5765 5762 5760 5759 5758 5758 5758 5758 5758 5758 5758 5758 5758 5758 5756 5753 5747 5745 5743 5741 5739 5737 5735 5733 5731
5798 5797 5797 5796 5794 5793 5792 5790 5787 5784 5781 5778 5776 5775 5773 5771 5770 5768 5766 5764 5762 5762 5760 5760 5760 5760 5760 5760 5760 5759 5759 5758 5756 5752 5748 5746 5744 5741 5739 5738 5736 5733 5731
5799 5797 5796 5794 5792 5791 5789 5789 5788 5785 5782 5779 5777 5774 5773 5771 5769 5768 5766 5765 5764 5762 5761 5761 5761 5761 5761 5761 5760 5760 5759 5758 5755 5753 5749 5746 5744 5742 5740 5738 5736 5734 5732
5800 5798 5796 5794 5792 5790 5788 5787 5787 5785 5782 5780 5777 5775 5772 5771 5769 5768 5766 5764 5763 5763 5762 5762 5761 5761 5761 5760 5759 5759 5758 5758 5755 5753 5750 5747 5744 5742 5740 5739 5737 5735 5733
5802 5800 5798 5795 5793 5790 5788 5787 5787 5785 5783 5780 5777 5774 5772 5770 5769 5767 5766 5764 5763 5763 5762 5761 5761 5761 5760 5759 5758 5758 5758 5757 5756 5754 5752 5749 5746 5743 5742 5740 5738 5736 5734
5805 5802 5801 5800 5794 5790 5788 5787 5786 5785 5783 5780 5777 5774 5772 5770 5769 5767 5765 5764 5763 5763 5762 5761 5760 5759 5757 5757 5756 5757 5757 5757 5756 5756 5754 5752 5749 5747 5744 5742 5740 5737 5735
5807 5803 5800 5799 5795 5791 5789 5787 5786 5784 5782 5780 5777 5775 5772 5770 5769 5767 5766 5765 5764 5763 5762 5762 5759 5758 5755 5754 5755 5757 5757 5757 5757 5757 5756 5754 5752 5750 5747 5744 5741 5739 5736
5809 5805 5801 5799 5796 5793 5790 5787 5786 5784 5783 5781 5778 5775 5773 5771 5770 5768 5766 5765 5764 5762 5761 5760 5757 5757 5755 5754 5756 5757 5757 5758 5758 5758 5757 5756 5754 5752 5749 5747 5743 5740 5737
5809 5805 5801 5798 5795 5793 5789 5785 5782 5781 5781 5781 5779 5777 5774 5772 5770 5768 5767 5765 5763 5761 5760 5759 5757 5755 5754 5756 5752 5750 5754 5758 5758 5757 5757 5756 5755 5753 5751 5748 5745 5742 5739
5809 5805 5802 5798 5796 5793 5791 5788 5786 5784 5782 5782 5781 5778 5776 5773 5771 5770 5766 5764 5763 5761 5760 5759 5757 5754 5754 5755 5750 5744 5741 5745 5751 5757 5756 5754 5754 5753 5751 5749 5746 5743 5741
5811 5807 5804 5800 5797 5794 5792 5789 5787 5784 5782 5780 5779 5778 5777 5774 5772 5769 5768 5765 5763 5762 5759 5758 5757 5754 5750 5754 5754 5746 5738 5735 5741 5749 5752 5752 5752 5751 5751 5749 5746 5744 5741
5814 5811 5807 5802 5798 5795 5793 5789 5784 5779 5776 5778 5778 5778 5777 5776 5773 5771 5768 5766 5763 5762 5760 5759 5759 5756 5753 5750 5752 5753 5750 5747 5739 5737 5744 5749 5750 5748 5749 5749 5747 5744 5741
5819 5814 5809 5803 5799 5796 5793 5790 5785 5782 5780 5780 5780 5778 5776 5775 5773 5771 5768 5765 5763 5762 5761 5759 5758 5757 5755 5752 5751 5751 5751 5750 5748 5739 5735 5740 5743 5746 5746 5746 5746 5743 5741
5822 5818 5812 5804 5800 5797 5794 5790 5786 5782 5780 5778 5777 5775 5774 5773 5772 5770 5768 5765 5763 5762 5761 5759 5757 5756 5755 5753 5752 5750 5748 5745 5744 5741 5736 5735 5735 5740 5743 5744 5744 5742 5740